Location: Kawakawa
(35.3830°S, 174.0670°E)
Time: 23:28:57
(UTC+13:00)

Altair - Pass Details

Date: 12 December 2019
Orbit: 1502 x 1682 km, 47.2° (Epoch: 23 January)

Event Time Altitude Azimuth Distance (km) Brightness Sun altitude
Rises 08:18:32 0° 333° (NNW) 4,693 9.7 25.2°
Reaches altitude 10° 08:21:43 10° 339° (NNW) 3,738 9.3 25.8°
Maximum altitude 08:30:33 45° 48° (NE) 2,087 9.1 27.6°
Drops below altitude 10° 08:39:46 10° 116° (ESE) 3,897 11.0 29.4°
Sets 08:43:08 0° 121° (ESE) 4,909 11.1 30.1°
